Weather History for Richlands, VA

Change the Weather History Date:

Wednesday, September 26, 2012

  Actual Average (KBLF) Record (KBLF)
Temperature  
Mean Temperature 66 °F 62 °F  
Max Temperature 77 °F 71 °F 87 °F (2007)
Min Temperature 55 °F 53 °F 37 °F (2001)
Degree Days  
Heating Degree Days 0 5  
Month to date heating degree days 53  
Since 1 July heating degree days 59  
Cooling Degree Days 1 2  
Month to date cooling degree days 93  
Year to date cooling degree days 827  
Growing Degree Days 16 (Base 50)    
Moisture  
Dew Point 57 °F    
Average Humidity 74    
Maximum Humidity 100    
Minimum Humidity 50    
Precipitation  
Precipitation 0.00 in 0.10 in 1.91 in (2009)
Month to date precipitation 2.71  
Year to date precipitation 31.10  
Snow  
Snow 0.00 in - - ()
Month to date snowfall  
Since 1 July snowfall  
Since 1 September snowfall  
Snow Depth -    
Sea Level Pressure  
Sea Level Pressure 30.22 in    
Wind  
Wind Speed 3 mph (South)    
Max Wind Speed 8 mph    
Max Gust Speed -    
Visibility 10 miles    
Events      
T = Trace of Precipitation, MM = Missing Value Source: NWS Daily Summary

Daily Weather History Graph

Daily Weather History Graph

Search for Another Location

Airport:

Trip Planner

Search our weather history database for the weather conditions in past years. The results will help you decide how hot, cold, wet, or windy it might be!

Date:

Astronomy

Sep. 26, 2012 Rise Set
Actual Time 7:18 AM EDT 7:17 PM EDT
Civil Twilight 6:52 AM EDT 7:43 PM EDT
Nautical Twilight 6:22 AM EDT 8:13 PM EDT
Astronomical Twilight 5:52 AM EDT 8:43 PM EDT
Moon 5:12 PM EDT (9/26) 3:47 AM EDT (9/26)
Length of Visible Light 12h 50m
Length of Day
11h 58m
Waxing Gibbous, 88% of the Moon is Illuminated
Sep 26
Waxing Gibbous
Sep 29
Full
Oct 8
Last Quarter
Oct 15
New
Oct 21
First Quarter

Hourly Weather History & Observations

Time (EDT) Temp. Dew Point Humidity Pressure Visibility Wind Dir Wind Speed Gust Speed Precip Events Conditions
12:55 AM 57.2 °F 55.4 °F 94% 30.19 in 10.0 mi Calm Calm - N/A   Clear
1:35 AM 59.0 °F 55.4 °F 88% 30.18 in 10.0 mi Variable 3.5 mph - N/A   Clear
1:55 AM 59.0 °F 55.4 °F 88% 30.19 in 10.0 mi Variable 3.5 mph - N/A   Clear
2:15 AM 59.0 °F 55.4 °F 88% 30.19 in 10.0 mi Variable 5.8 mph - N/A   Clear
2:35 AM 60.8 °F 55.4 °F 82% 30.19 in 10.0 mi Variable 3.5 mph - N/A   Clear
2:55 AM 60.8 °F 55.4 °F 82% 30.18 in 10.0 mi Variable 4.6 mph - N/A   Clear
3:15 AM 60.8 °F 57.2 °F 88% 30.18 in 10.0 mi Variable 3.5 mph - N/A   Clear
3:35 AM 57.2 °F 55.4 °F 94% 30.19 in 10.0 mi Calm Calm - N/A   Clear
4:15 AM 57.2 °F 55.4 °F 94% 30.19 in 10.0 mi Variable 4.6 mph - N/A   Clear
4:35 AM 57.2 °F 55.4 °F 94% 30.18 in 10.0 mi South 3.5 mph - N/A   Clear
4:55 AM 57.2 °F 55.4 °F 94% 30.18 in 10.0 mi Calm Calm - N/A   Clear
5:15 AM 55.4 °F 55.4 °F 100% 30.19 in 10.0 mi Calm Calm - N/A   Clear
5:35 AM 55.4 °F 55.4 °F 100% 30.19 in 10.0 mi Calm Calm - N/A   Clear
5:55 AM 59.0 °F 57.2 °F 94% 30.20 in 10.0 mi Variable 3.5 mph - N/A   Clear
6:15 AM 57.2 °F 55.4 °F 94% 30.21 in 10.0 mi Calm Calm - N/A   Clear
6:35 AM 55.4 °F 55.4 °F 100% 30.22 in 10.0 mi South 4.6 mph - N/A   Clear
6:55 AM 57.2 °F 55.4 °F 94% 30.22 in 10.0 mi South 3.5 mph - N/A   Clear
7:15 AM 57.2 °F 55.4 °F 94% 30.22 in 10.0 mi South 4.6 mph - N/A   Clear
7:35 AM 57.2 °F 55.4 °F 94% 30.22 in 10.0 mi Calm Calm - N/A   Clear
7:55 AM 59.0 °F 55.4 °F 88% 30.22 in 10.0 mi SSW 3.5 mph - N/A   Clear
8:15 AM 59.0 °F 57.2 °F 94% 30.23 in 10.0 mi South 4.6 mph - N/A   Clear
8:35 AM 60.8 °F 57.2 °F 88% 30.23 in 10.0 mi Variable 4.6 mph - N/A   Clear
8:55 AM 62.6 °F 57.2 °F 82% 30.23 in 10.0 mi Variable 4.6 mph - N/A   Clear
9:15 AM 64.4 °F 57.2 °F 77% 30.25 in 10.0 mi SW 6.9 mph - N/A   Clear
9:35 AM 64.4 °F 57.2 °F 77% 30.25 in 10.0 mi Variable 5.8 mph - N/A   Clear
9:55 AM 66.2 °F 57.2 °F 73% 30.26 in 10.0 mi WSW 8.1 mph - N/A   Clear
10:15 AM 66.2 °F 57.2 °F 73% 30.26 in 10.0 mi Variable 5.8 mph - N/A   Clear
10:35 AM 68.0 °F 57.2 °F 68% 30.26 in 10.0 mi Variable 5.8 mph - N/A   Clear
10:55 AM 69.8 °F 57.2 °F 64% 30.26 in 10.0 mi Variable 4.6 mph - N/A   Clear
11:15 AM 69.8 °F 59.0 °F 68% 30.26 in 10.0 mi Variable 5.8 mph - N/A   Clear
11:35 AM 69.8 °F 59.0 °F 68% 30.26 in 10.0 mi Variable 5.8 mph - N/A   Clear
12:35 PM 71.6 °F 60.8 °F 69% 30.25 in 10.0 mi Variable 6.9 mph - N/A   Clear
12:55 PM 73.4 °F 60.8 °F 65% 30.25 in 10.0 mi Variable 6.9 mph - N/A   Clear
1:15 PM 71.6 °F 60.8 °F 69% 30.25 in 10.0 mi Calm Calm - N/A   Clear
1:35 PM 73.4 °F 59.0 °F 61% 30.24 in 10.0 mi Variable 3.5 mph - N/A   Clear
1:55 PM 73.4 °F 57.2 °F 57% 30.23 in 10.0 mi WSW 4.6 mph - N/A   Clear
2:15 PM 73.4 °F 57.2 °F 57% 30.23 in 10.0 mi Variable 4.6 mph - N/A   Clear
2:35 PM 75.2 °F 59.0 °F 57% 30.23 in 10.0 mi Variable 3.5 mph - N/A   Clear
2:55 PM 77.0 °F 59.0 °F 54% 30.22 in 10.0 mi Variable 5.8 mph - N/A   Clear
3:15 PM 77.0 °F 59.0 °F 54% 30.22 in 10.0 mi WSW 6.9 mph - N/A   Clear
3:35 PM 75.2 °F 57.2 °F 53% 30.22 in 10.0 mi Variable 5.8 mph - N/A   Clear
3:55 PM 77.0 °F 57.2 °F 50% 30.22 in 10.0 mi Variable 4.6 mph - N/A   Clear
4:15 PM 77.0 °F 57.2 °F 50% 30.22 in 10.0 mi WSW 4.6 mph - N/A   Clear
4:35 PM 75.2 °F 57.2 °F 53% 30.22 in 10.0 mi Variable 5.8 mph - N/A   Clear
4:55 PM 75.2 °F 57.2 °F 53% 30.21 in 10.0 mi Variable 3.5 mph - N/A   Clear
5:15 PM 75.2 °F 57.2 °F 53% 30.21 in 10.0 mi Variable 4.6 mph - N/A   Clear
5:35 PM 75.2 °F 57.2 °F 53% 30.21 in 10.0 mi Variable 4.6 mph - N/A   Clear
5:55 PM 73.4 °F 57.2 °F 57% 30.21 in 10.0 mi Variable 3.5 mph - N/A   Clear
6:15 PM 73.4 °F 57.2 °F 57% 30.21 in 10.0 mi Variable 3.5 mph - N/A   Clear
6:35 PM 71.6 °F 57.2 °F 60% 30.22 in 10.0 mi Variable 3.5 mph - N/A   Clear
6:55 PM 71.6 °F 57.2 °F 60% 30.22 in 10.0 mi Calm Calm - N/A   Clear
7:15 PM 69.8 °F 57.2 °F 64% 30.22 in 10.0 mi Calm Calm - N/A   Clear
7:35 PM 68.0 °F 55.4 °F 64% 30.22 in 10.0 mi Calm Calm - N/A   Clear
7:55 PM 68.0 °F 55.4 °F 64% 30.23 in 10.0 mi Calm Calm - N/A   Clear
8:35 PM 68.0 °F 55.4 °F 64% 30.24 in 10.0 mi Calm Calm - N/A   Clear
8:55 PM 64.4 °F 57.2 °F 77% 30.24 in 10.0 mi South 3.5 mph - N/A   Clear
9:15 PM 62.6 °F 57.2 °F 82% 30.23 in 10.0 mi SSE 4.6 mph - N/A   Clear
9:35 PM 64.4 °F 55.4 °F 73% 30.23 in 10.0 mi SSE 3.5 mph - N/A   Clear
9:55 PM 64.4 °F 55.4 °F 73% 30.23 in 10.0 mi SSE 3.5 mph - N/A   Clear
10:15 PM 64.4 °F 55.4 °F 73% 30.23 in 10.0 mi SSE 3.5 mph - N/A   Clear
10:35 PM 64.4 °F 55.4 °F 73% 30.23 in 10.0 mi South 4.6 mph - N/A   Clear
10:55 PM 64.4 °F 55.4 °F 73% 30.23 in 10.0 mi SSE 3.5 mph - N/A   Clear
11:15 PM 64.4 °F 55.4 °F 73% 30.23 in 10.0 mi Calm Calm - N/A   Clear
11:35 PM 66.2 °F 55.4 °F 68% 30.24 in 10.0 mi Variable 3.5 mph - N/A   Clear
11:55 PM 66.2 °F 55.4 °F 68% 30.24 in 10.0 mi Calm Calm - N/A   Clear